Back to catalog

STARLINK-36605

AliveCommunicationsSSO
NORAD 67604·PAYLOAD·🇺🇸 United States

Launched Jan 29, 2026 from Vandenberg Space Force Base

Loading…

Next Passes (next 24 hours)

TLE

FreshSource: CelesTrak SupGP

Epoch: Sep 14, 2026, 22:53 UTC

1 67604C 26018R   26257.95395833  .00001269  00000+0  39382-4 0  2570
2 67604  97.2856 321.4705 0000897  87.5888 109.5989 15.33437859    12

Track STARLINK-36605 in real time with AllMySat

Download on the App Store